This demonstration page uses our WeatherBlox Daily Observations layout. Learn more.

Left ArrowRight Arrow

39.92423, -83.80882

Hourly Observations for January 6, 2018

Temp ( °F °C ) Dew Point ( °F °C ) Humidity (%) Winds ( mph kmh ) Pressure ( in mb ) Visibility ( mi km ) Precip ( " mm )
12:56 am 00:56 Clear -6 -21.1 -10 -23.3 83 83 W 6 9 30.49 1033 10 16.0934 0 0
1:56 am 01:56 Mostly Clear -6 -21.1 -10 -23.3 83 83 W 3 6 30.5 1033 10 16.0934 0 0
2:56 am 02:56 Mostly Cloudy -5 -20.6 -9 -22.8 83 83 W 5 7 30.52 1033 10 16.0934 0 0
3:56 am 03:56 Cloudy -4 -20 -8 -22.2 83 83 W 5 7 30.52 1034 10 16.0934 0 0
4:56 am 04:56 Cloudy -4 -20 -8 -22.2 83 83 WSW 5 7 30.53 1034 10 16.0934 0 0
5:56 am 05:56 Cloudy -3 -19.4 -7 -21.7 82 82 WSW 5 7 30.55 1035 10 16.0934 0 0
6:56 am 06:56 Cloudy -4 -20 -8 -22.2 83 83 VRB 5 7 30.55 1035 10 16.0934 0 0
7:56 am 07:56 Cloudy -3 -19.4 -7 -21.7 82 82 W 5 7 30.58 1036 10 16.0934 0 0
8:56 am 08:56 Cloudy -2 -18.9 -5 -20.6 87 87 SW 5 7 30.59 1036 10 16.0934 0 0
9:56 am 09:56 Cloudy 2 -16.7 -2 -18.9 83 83 WSW 5 7 30.61 1037 10 16.0934 0 0
10:56 am 10:56 Cloudy 10 -12.2 4 -15.6 76 76 Calm 30.63 1037 10 16.0934 0 0
11:56 am 11:56 Mostly Cloudy 17 -8.3 8 -13.3 68 68 Calm 30.63 1037 10 16.0934 0 0
12:56 pm 12:56 Sunny 21 -6.1 6 -14.4 52 52 W 6 9 30.61 1037 10 16.0934 0 0
1:56 pm 13:56 Mostly Sunny 21 -6.1 7 -13.9 54 54 W 7 11 30.61 1037 10 16.0934 0 0
2:29 pm 14:29 Mostly Cloudy 18 -8 5 -15 58 58 W 9 15 30.62 1037 10 16.0934 0 0
2:56 pm 14:56 Mostly Cloudy 14 -10 4 -15.6 64 64 NW 9 15 30.62 1037 10 16.0934 0 0
3:26 pm 15:26 Partly Cloudy 19 -7 7 -14 58 58 W 7 11 30.62 1037 10 16.0934 0 0
3:56 pm 15:56 Mostly Sunny 17 -8.3 5 -15 59 59 W 7 11 30.63 1037 10 16.0934 0 0
4:42 pm 16:42 Cloudy 12 -11 3 -16 67 67 NW 3 6 30.65 1038 10 16.0934 0 0
4:56 pm 16:56 Cloudy 12 -11.1 4 -15.6 70 70 NW 3 6 30.65 1038 10 16.0934 0 0
5:56 pm 17:56 Mostly Cloudy with Light Snow 7 -13.9 -1 -18.3 70 70 WSW 3 6 30.64 1038 9 14.48406 0 0.0254
6:08 pm 18:08 Partly Cloudy with Scattered Snow Showers 7 -14 1 -17 78 78 WSW 3 6 30.68 1039 9 14.48406 0 0.0254
6:56 pm 18:56 Clear 3 -16.1 -3 -19.4 76 76 Calm 30.64 1038 10 16.0934 0 0.0254
7:56 pm 19:56 Clear 0 -17.8 -5 -20.6 79 79 Calm 30.65 1038 10 16.0934 0 0
8:56 pm 20:56 Clear -1 -18.3 -4 -20 87 87 Calm 30.64 1038 10 16.0934 0 0
9:56 pm 21:56 Clear -5 -20.6 -9 -22.8 83 83 SSE 3 6 30.63 1037 10 16.0934 0 0
10:56 pm 22:56 Clear -5 -20.6 -9 -22.8 83 83 SE 3 6 30.63 1037 10 16.0934 0 0
11:56 pm 23:56 Clear -7 -21.7 -11 -23.9 82 82 SE 5 7 30.62 1037 10 16.0934 0 0

Powered by AerisWeather